TimeCDT,TemperatureF,Dew PointF,Humidity,Sea Level PressureIn,VisibilityMPH,Wind Direction,Wind SpeedMPH,Gust SpeedMPH,PrecipitationIn,Events,Conditions,WindDirDegrees,DateUTC
12:51 AM,80.1,70.0,71,29.98,10.0,South,6.9,-,N/A,,Clear,180,2013-07-11 05:51:00
1:51 AM,78.1,71.1,79,29.98,10.0,South,5.8,-,N/A,,Clear,190,2013-07-11 06:51:00
2:51 AM,75.9,71.1,85,29.99,10.0,SW,3.5,-,N/A,,Clear,220,2013-07-11 07:51:00
3:51 AM,73.9,70.0,87,29.99,10.0,SW,3.5,-,N/A,,Clear,230,2013-07-11 08:51:00
4:51 AM,72.0,70.0,93,29.99,10.0,Calm,Calm,-,N/A,,Clear,0,2013-07-11 09:51:00
5:51 AM,72.0,70.0,93,29.99,10.0,SW,3.5,-,N/A,,Clear,220,2013-07-11 10:51:00
6:51 AM,71.1,69.1,93,29.99,9.0,South,3.5,-,N/A,,Partly Cloudy,190,2013-07-11 11:51:00
7:14 AM,73.4,71.6,94,30.01,10.0,South,3.5,-,N/A,,Mostly Cloudy,190,2013-07-11 12:14:00
7:41 AM,75.2,71.6,89,30.01,10.0,SSW,4.6,-,N/A,,Overcast,210,2013-07-11 12:41:00
7:51 AM,75.9,72.0,87,29.99,10.0,SW,4.6,-,N/A,,Overcast,220,2013-07-11 12:51:00
8:02 AM,75.2,73.4,94,30.01,10.0,SSW,5.8,-,N/A,,Overcast,210,2013-07-11 13:02:00
8:12 AM,77.0,73.4,89,30.01,10.0,SW,5.8,-,N/A,,Overcast,220,2013-07-11 13:12:00
8:19 AM,78.8,73.4,83,30.01,10.0,SW,6.9,-,N/A,,Overcast,230,2013-07-11 13:19:00
8:51 AM,80.1,72.0,76,29.99,10.0,SSW,12.7,-,N/A,,Scattered Clouds,210,2013-07-11 13:51:00
9:51 AM,82.9,71.1,67,29.97,10.0,SSW,9.2,-,N/A,,Partly Cloudy,210,2013-07-11 14:51:00
10:51 AM,88.0,71.1,57,29.97,10.0,SSW,9.2,-,N/A,,Clear,200,2013-07-11 15:51:00
11:51 AM,90.0,68.0,48,29.96,10.0,SSW,9.2,-,N/A,,Clear,210,2013-07-11 16:51:00
12:51 PM,91.9,66.9,44,29.96,10.0,SW,8.1,-,N/A,,Partly Cloudy,230,2013-07-11 17:51:00
1:51 PM,91.0,66.9,45,29.94,10.0,SW,5.8,-,N/A,,Scattered Clouds,230,2013-07-11 18:51:00
2:51 PM,93.9,64.9,38,29.92,10.0,Variable,6.9,-,N/A,,Partly Cloudy,0,2013-07-11 19:51:00
3:51 PM,97.0,64.0,34,29.90,10.0,Variable,4.6,-,N/A,,Clear,0,2013-07-11 20:51:00
4:51 PM,97.0,63.0,32,29.88,10.0,West,4.6,-,N/A,,Clear,270,2013-07-11 21:51:00
5:51 PM,96.1,62.1,32,29.86,10.0,Calm,Calm,-,N/A,,Scattered Clouds,0,2013-07-11 22:51:00
6:51 PM,93.9,62.1,35,29.84,10.0,SSW,4.6,-,N/A,,Clear,210,2013-07-11 23:51:00
7:51 PM,93.0,62.1,36,29.85,10.0,South,8.1,-,N/A,,Clear,190,2013-07-12 00:51:00
8:51 PM,86.0,61.0,43,29.86,10.0,SSE,5.8,-,N/A,,Clear,160,2013-07-12 01:51:00
9:51 PM,86.0,66.0,51,29.87,10.0,SSE,10.4,-,N/A,,Clear,160,2013-07-12 02:51:00
10:51 PM,84.9,66.9,55,29.90,10.0,SSE,12.7,20.7,N/A,,Clear,160,2013-07-12 03:51:00
11:51 PM,82.0,66.9,60,29.91,10.0,South,10.4,-,N/A,,Clear,180,2013-07-12 04:51:00